Simultaneous Nadir Overpasses (SNOs) Predictions

Prediction of SNOs between GOES-15 and NPP Satellite Orbit:

Table of predicted SNOs for the next 14.0 days since TLE Epoch: 11/11/2012
Index Date Time (GOES-15) GOES-15 Lat,Lon NPP Lat,Lon Distance(km) Time Diff (sec)
1 11/12/2012 10:22:24 0.04,-134.62 0.19,-135.15 61.12 80
2 11/13/2012 10:06:20 0.06,-134.57 -0.82,-130.62 450.05 80
3 11/14/2012 22:25:36 -0.03,-134.44 -0.39,-135.92 169.00 80
4 11/15/2012 22:09:32 -0.05,-134.39 0.61,-131.39 341.81 80
5 11/17/2012 10:28:41 0.02,-134.35 0.53,-136.67 263.95 80
6 11/18/2012 10:12:37 0.03,-134.30 -0.47,-132.14 246.38 80
7 11/19/2012 22:31:53 0.00,-134.16 -0.73,-137.44 373.80 80
8 11/20/2012 22:15:48 -0.01,-134.10 0.26,-132.91 136.59 80
9 11/22/2012 10:34:58
